Content
SEND FEEDBACK

Daily
Averages
Monthly
Summary
United States of America

WILMINGTON, NORTH CAROLINA


Home > North America > United States > North Carolina
Elevation: 72 feet     Latitude: 34 16N     Longitude: 077 54W

WEATHER
 
SELECT A DAY
Number of Records: 208,565;   Date Range: 1/1/95 - 7/7/14
 
SHARE

PRINT THIS DATA

[ ← Previous Day ]
WEATHER ALMANAC - OCTOBER 22, 2013
[ Next Day → ]
[ °C ]   °F
Weather ElementAverageHighLow
Temperature63.8 °F69.1 °F (1:53 pm)59 °F (6:53 am)
Dewpoint55.5 °F60.1 °F (4:53 pm)52 °F (1:53 am)
Humidity75.3 %90 % (7:53 pm)56 % (11:53 am)
Barometer29.94 in30.02 in (1:53 am)29.85 in (10:53 pm)
Wind Speed1.2 mph4.6 mph (2:53 pm)
Weather ElementAverage
Visibility9.5 mi
Wind DirectionENE (67.4 °)

Weather ElementTotal
Precipitation0.02 in
Heating Degree Days1 (Base 65)
Growing Degree Days14.1 (Base 50)
Averaged from 23 records on October 22, 2013
WEATHER CONDITIONS BREAKOUT
WIND DIRECTION BREAKOUT
WEATHER BY HOUR - OCTOBER 22, 2013
[ °C ]   °F
Local TimeTemperatureDewpointHumidityBarometerVisibilityWind DirectionWind SpeedGust SpeedPrecipitationEventsConditions
1:53 AM60.1 °F52.0 °F75 %30.02 in10.0 miCalmPartly Cloudy
2:53 AM60.1 °F52.0 °F75 %30.00 in10.0 miCalmScattered Clouds
3:53 AM61.0 °F52.0 °F72 %29.99 in10.0 miCalmMostly Cloudy
4:53 AM60.1 °F52.0 °F75 %29.98 in10.0 miNW (320°)3.5 mphClear
5:53 AM60.1 °F52.0 °F75 %29.97 in10.0 miCalmClear
6:53 AM59.0 °F53.1 °F81 %29.96 in10.0 miCalmClear
7:53 AM59.0 °F53.1 °F81 %29.98 in10.0 miCalmPartly Cloudy
8:53 AM62.1 °F53.1 °F72 %29.99 in10.0 miCalmPartly Cloudy
9:53 AM64.9 °F53.1 °F65 %29.99 in10.0 miNW (320°)3.5 mphClear
10:53 AM66.0 °F53.1 °F63 %29.99 in10.0 miWSW (240°)3.5 mphClear
11:53 AM68.0 °F52.0 °F56 %29.96 in10.0 miCalmClear
12:53 PM68.0 °F54.0 °F61 %29.94 in10.0 miCalmMostly Cloudy
1:53 PM69.1 °F54.0 °F58 %29.92 in10.0 miVariable3.5 mphPartly Cloudy
2:53 PM69.1 °F55.9 °F63 %29.91 in10.0 miWNW (290°)4.6 mph0.00 inRainLight Rain
3:53 PM68.0 °F57.0 °F68 %29.90 in10.0 miCalm0.01 inRainLight Rain
4:53 PM66.9 °F60.1 °F79 %29.89 in10.0 miCalm0.00 inRainLight Rain
5:53 PM64.9 °F60.1 °F84 %29.90 in10.0 miSSW (200°)4.6 mph0.00 inRainLight Rain
6:53 PM64.0 °F60.1 °F87 %29.90 in8.0 miSouth (180°)3.5 mph0.00 inRainLight Rain
7:53 PM63.0 °F60.1 °F90 %29.89 in8.0 miCalm0.01 inRainLight Rain
8:53 PM64.0 °F60.1 °F87 %29.89 in10.0 miCalm0.00 inOvercast
9:53 PM63.0 °F60.1 °F90 %29.88 in8.0 miCalm0.00 inOvercast
10:53 PM63.0 °F60.1 °F90 %29.85 in8.0 miCalm0.00 inOvercast
11:53 PM63.0 °F57.9 °F84 %29.85 in7.0 miCalm0.00 inRainLight Rain
Hourly data recorded from KILM, located miles away from Wilmington, North Carolina







STORIES FROM OUR PARTNERS